This is the latest recevied weather packets stored in our database for station/object W4NDF-13. If no packets are shown the sender has not sent any weather packets the latest 10 day(s).
| Time | Temp. | Humidity | Pressure | Rain* | Wind** | Luminosity | Snow |
|---|---|---|---|---|---|---|---|
| 1777379884 | 24.44° C | 89% | 1019.2 hPa | 0 mm | - | 99 W/m² | - |
| 1777379580 | 24.44° C | 89% | 1019.1 hPa | 0 mm | - | 86 W/m² | - |
| 1777379276 | 23.89° C | 89% | 1019.1 hPa | 0 mm | - | 67 W/m² | - |
| 1777378970 | 23.89° C | 90% | 1018.9 hPa | 0 mm | - | 59 W/m² | - |
| 1777378667 | 23.89° C | 90% | 1018.7 hPa | 0 mm | - | 45 W/m² | - |
| 1777378363 | 23.89° C | 90% | 1018.8 hPa | 0 mm | - | 38 W/m² | - |
| 1777378058 | 23.89° C | 91% | 1018.3 hPa | 0 mm | - | 39 W/m² | - |
| 1777377758 | 23.89° C | 91% | 1018.2 hPa | 0 mm | - | 42 W/m² | - |
| 1777377452 | 23.33° C | 91% | 1018 hPa | 0 mm | - | 37 W/m² | - |
| 1777377148 | 23.33° C | 92% | 1017.9 hPa | 0 mm | - | 27 W/m² | - |
| 1777376846 | 23.33° C | 92% | 1018.2 hPa | 0 mm | - | 20 W/m² | - |
| 1777376543 | 23.33° C | 92% | 1018 hPa | 0 mm | - | 16 W/m² | - |
| 1777376239 | 23.33° C | 92% | 1017.7 hPa | 0 mm | - | 13 W/m² | - |
| 1777375934 | 23.33° C | 92% | 1017.6 hPa | 0 mm | - | 9 W/m² | - |
| 1777375629 | 23.33° C | 93% | 1017.1 hPa | 0 mm | - | 6 W/m² | - |
| 1777375323 | 23.33° C | 93% | 1017.1 hPa | 0 mm | - | 4 W/m² | - |
| 1777375020 | 23.33° C | 93% | 1016.8 hPa | 0 mm | - | 2 W/m² | - |
| 1777374716 | 23.33° C | 93% | 1016.9 hPa | 0 mm | - | 1 W/m² | - |
| 1777374412 | 23.33° C | 93% | 1017.1 hPa | 0 mm | - | 0 W/m² | - |
| 1777374110 | 23.33° C | 93% | 1016.6 hPa | 0 mm | - | 0 W/m² | - |
| 1777373805 | 23.33° C | 93% | 1016.8 hPa | 0 mm | - | 0 W/m² | - |
| 1777373504 | 23.33° C | 93% | 1016.5 hPa | 0 mm | - | 0 W/m² | - |
| 1777373204 | 23.33° C | 93% | 1016.5 hPa | 0 mm | - | 0 W/m² | - |
| 1777372899 | 23.33° C | 93% | 1016.4 hPa | 0 mm | - | 0 W/m² | - |
| 1777372595 | 23.33° C | 93% | 1016.4 hPa | 0 mm | - | 0 W/m² | - |
* Rain latest hour (hover to see other rain measurements)
** Current wind speed in m/s (hover to see current wind gust speed)